User: anonymous   Login
Location: McKinley Crossing
(64.8808°N, 149.6453°W)
Time: 18:38:57
(UTC+00:00)
Language:

JY1SAT - Orbit

View from above orbital plane
View from above orbital plane
View from above satellite
View from above satellite

Ground track
Ground track

The orbit data is extracted from the following two-line orbital elements,

1 43803U 18099AX  21106.18862930  .00000254  00000-0  27853-4 0  9992
2 43803  97.6666 178.1342 0013715 257.3523 102.6165 14.95793434129181
Epoch (UTC): 16 April 2021 04:31:37
Eccentricity: 0.0013715
inclination: 97.6666°
perigee height: 570 km
apogee height: 589 km
right ascension of ascending node: 178.1342°
argument of perigee: 257.3523°
revolutions per day: 14.95793434
mean anomaly at epoch: 102.6165°
orbit number at epoch: 12918

The dashed part of the orbit path shows where the satellite is in the earth's shadow,  

DLR